Location: New Town
(33.2710°N, 90.7534°W)
Time: 11:48:30
(UTC+00:00)

Vanguard 1 - All Passes

Search period start: 13 May 2021 00:00
Search period end: 23 May 2021 00:00
Orbit: 649 x 3834 km, 34.2° (Epoch: 04 May)

Date Brightness Start Highest point End Pass type
(mag) Time Alt. Az. Time Alt. Az. Time Alt. Az.
13 May - 12:40:50 10° SSW 12:44:43 30° SSE 12:49:12 10° E daylight
13 May - 14:59:34 10° W 15:04:29 88° N 15:12:26 10° E daylight
13 May - 17:18:54 10° W 17:25:36 86° SSW 17:38:21 10° ESE daylight
13 May - 19:38:44 10° W 19:47:58 49° SSW 20:04:32 10° SE daylight
13 May - 22:02:10 10° WSW 22:12:01 21° SW 22:25:22 10° S daylight
14 May - 13:01:14 10° SW 13:05:25 45° SSE 13:10:32 10° E daylight
14 May - 15:20:26 10° W 15:25:30 82° N 15:33:53 10° E daylight
14 May - 17:39:45 10° W 17:46:41 76° SSW 17:59:54 10° ESE daylight
14 May - 19:59:58 10° W 20:09:14 40° SSW 20:25:02 10° SSE daylight
14 May - 22:26:04 10° WSW 22:33:31 15° SW 22:42:38 10° S daylight
15 May - 11:04:37 10° S 11:06:44 13° SSE 11:08:46 10° ESE daylight
15 May - 13:21:53 10° WSW 13:26:13 64° SSE 13:31:45 10° E daylight
15 May - 15:41:18 10° W 15:46:31 83° N 15:55:23 10° E daylight
15 May - 18:00:39 10° W 18:07:47 64° SSW 18:21:16 10° ESE daylight
15 May - 20:21:28 10° W 20:30:34 31° SSW 20:45:03 10° SSE daylight
16 May - 11:23:56 10° SSW 11:27:31 21° SSE 11:30:54 10° E daylight
16 May - 13:42:41 10° WSW 13:47:06 83° SSE 13:52:55 10° E daylight
16 May - 16:02:10 10° W 16:07:33 88° N 16:16:54 10° E daylight
16 May - 18:21:35 10° W 18:28:55 53° SSW 18:42:22 10° SE daylight
16 May - 20:43:27 10° WSW 20:51:56 23° SSW 21:04:23 10° SSE daylight
17 May - 11:44:05 10° SW 11:48:18 32° SSE 11:52:19 10° E daylight
17 May - 14:03:34 10° W 14:08:01 85° N 14:14:09 10° E daylight
17 May - 16:23:00 10° W 16:28:34 83° SSW 16:38:24 10° ESE daylight
17 May - 18:42:41 10° W 18:50:04 42° SSW 19:03:07 10° SE daylight
17 May - 21:06:21 10° WSW 21:13:23 17° SSW 21:22:40 10° S daylight
18 May - 09:48:20 10° SSE 09:49:08 10° SSE 09:49:56 10° SE visible
18 May - 12:04:37 10° SW 12:09:05 48° SSE 12:13:30 10° E daylight
18 May - 14:24:29 10° W 14:28:59 80° N 14:35:25 10° E daylight
18 May - 16:43:51 10° W 16:49:34 70° SSW 16:59:45 10° ESE daylight
18 May - 19:03:58 10° W 19:11:18 33° SSW 19:23:27 10° SSE daylight
18 May - 21:32:34 10° SW 21:34:57 10° SSW 21:37:32 10° SSW daylight
19 May - 10:06:25 10° SSW 10:10:06 17° SSE 10:13:10 10° ESE visible
19 May - 12:25:23 10° WSW 12:29:55 67° SSE 12:34:34 10° E daylight
19 May - 14:45:23 10° W 14:49:58 82° N 14:56:44 10° E daylight
19 May - 17:04:45 10° W 17:10:35 57° SSW 17:20:56 10° SE daylight
19 May - 19:25:37 10° WSW 19:32:35 24° SSW 19:43:13 10° SSE daylight
20 May - 10:26:16 10° SSW 10:31:01 26° SSE 10:34:48 10° E visible
20 May - 12:46:18 10° WSW 12:50:48 85° SSE 12:55:37 10° E daylight
20 May - 15:06:15 10° W 15:10:56 89° NNE 15:18:04 10° E daylight
20 May - 17:25:44 10° W 17:31:39 44° SSW 17:41:50 10° SE daylight
20 May - 19:47:58 10° WSW 19:53:56 17° SSW 20:02:07 10° S daylight
21 May - 10:46:39 10° SW 10:51:53 38° SSE 10:56:01 10° E daylight
21 May - 13:07:16 10° W 13:11:44 83° N 13:16:41 10° E daylight
21 May - 15:27:07 10° W 15:31:53 78° SSW 15:39:21 10° ESE daylight
21 May - 17:46:53 10° W 17:52:45 34° SSW 18:02:23 10° SE daylight
21 May - 20:12:19 10° SW 20:15:23 11° SSW 20:18:52 10° SSW daylight
22 May - 08:48:00 10° S 08:52:22 16° SSE 08:55:49 10° ESE visible
22 May - 11:07:23 10° WSW 11:12:46 54° SSE 11:17:03 10° E daylight
22 May - 13:28:16 10° W 13:32:40 78° N 13:37:49 10° E daylight
22 May - 15:47:59 10° W 15:52:50 62° SSW 16:00:31 10° ESE daylight
22 May - 18:08:20 10° WSW 18:13:55 25° SSW 18:22:27 10° SSE daylight
